Terug naar catalogus

DELTA 1 DEB

LostLEO
NORAD 42575·DEBRIS·🇺🇸 United States

Gelanceerd Nov 6, 1973 vanaf Vandenberg Space Force Base

Loading…

Volgende Passages (komende 24 uur)

TLE

VerouderdSource: Space-Track

Epoch: May 3, 2024, 07:21 UTC

1 42575U 73086HP  24124.30642692  .00014888  00000-0  35234-1 0  9999
2 42575 103.7027 146.4888 0312542 337.0542  21.6845 13.07288196127310

Volg DELTA 1 DEB in realtime met AllMySat

Download on the App Store